SCP
0 0 0 0 0 0 0 0 0 0 0 0 0 0 0 0 0 0 0 0 0 0 0 0 0 0 0 0 0 0 0 0 0 0 0 0 0 0 0 0 0 0 0
0 0 0 0 0 0 0 0 0 0 0 0 0 0 0 0 0 0 0 0 0 0 0 0 0 0 0 0 0 0 0 0 0 0 0 0 0 0 0 0 0 0 0
0 0 0 0 0 0 0 0 0 0 0 0 0 0 0 0 0 0 0 0 0 0 0 0 0 0 0 0 0 0 0 0 0 0 0 0 0 0 0 0 0 0 0
0 0 0 0 0 0 0 0 0 0 0 0 0 0 0 0 0 0 0 0 0 0 0 0 0 0 0 0 0 0 0 0 0 0 0 0 0 0 0 0 0 0 0
0 0 0 0 0 0 0 0 0 0 0 0 0 0 0 0 0 0 0 0 0 0 0 0 0 0 0 0 0 0 0 0 0 0 0 0 0 0 0 0 0 0 0
0 0 0 0 0 0 0 0 0 0 0 0 0 0 0 0 0 0 0 0 0 0 0 0 0 0 0 0 0 0 0 0 0 0 0 0 0 0 0 0 0 0 0
0 0 0 0 0 0 0 0 0 0 0 0 0 0 0 0 0 0 0 0 0 0 0 0 0 0 0 0 0 0 0 0 0 0 0 0 0 0 0 0 0 0 0
0 0 0 0 0 0 0 0 0 0 0 0 0 0 0 0 0 0 0 0 0 0 0 0 0 0 0 0 0 0 0 0 0 0 0 0 0 0 0 0 0 0 0
0 0 0 0 0 0 0 0 0 0 0 0 0 0 0 0 0 0 0 0 0 0 0 0 0 0 0 0 0 0 0 0 0 0 0 0 0 0 0 0 0 0 0
0 0 0 0 0 0 0 0 0 0 0 0 0 0 0 0 0 0 0 0 0 0 0 0 0 0 0 0 0 0 0 0 0 0 0 0 0 0 0 0 0 0 0
0 0 0 0 0 0 0 0 0 0 0 0 0 0 0 0 0 0 0 0 0 0 0 0 0 0 0 0 0 0 0 0 0 0 0 0 0 0 0 0 0 0 0
0 0 0 0 0 0 0 0 0 0 0 0 0 0 0 0 0 0 0 0 0 0 0 0 0 0 0 0 0 0 0 0 0 0 0 0 0 0 0 0 0 0 0
0 0 0 0 0 0 0 0 0 0 0 0 0 0 0 0 0 0 0 0 0 0 0 0 0 0 0 0 0 0 0 0 0 0 0 0 0 0 0 0 0 0 0
0 0 0 0 0 0 0 0 0 0 0 0 0 0 0 0 0 0 0 0 0 0 0 0 0 0 0 0 0 0 0 0 0 0 0 0 0 0 0 0 0 0 0
0 0 0 0 0 0 0 0 0 0 0 0 0 0 0 0 0 0 0 0 0 0 0 0 0 0 0 0 0 0 0 0 0 0 0 0 0 0 0 0 0 0 0
0 0 0 0 0 0 0 0 0 0 0 0 0 0 0 0 0 0 0 0 0 0 0 0 0 0 0 0 0 0 0 0 0 0 0 0 0 0 0 0 0 0 0
0 0 0 0 0 0 0 0 0 0 0 0 0 0 0 0 0 0 0 0 0 0 0 0 0 0 0 0 0 0 0 0 0 0 0 0 0 0 0 0 0 0 0
0 0 0 0 0 0 0 0 0 0 0 0 0 0 0 0 0 0 0 0 0 0 0 0 0 0 0 0 0 0 0 0 0 0 0 0 0 0 0 0 0 0 0
0 0 0 0 0 0 0 0 0 0 0 0 0 0 0 0 0 0 0 0 0 0 0 0 0 0 0 0 0 0 0 0 0 0 0 0 0 0 0 0 0 0 0
0 0 0 0 0 0 0 0 0 0 0 0 0 0 0 0 0 0 0 0 0 0 0 0 0 0 0 0 0 0 0 0 0 0 0 0 0 0 0 0 0 0 0
0 0 0 0 0 0 0 0 0 0 0 0 0 0 0 0 0 0 0 0 0 0 0 0 0 0 0 0 0 0 0 0 0 0 0 0 0 0 0 0 0 0 0
0 0 0 0 0 0 0 0 0 0 0 0 0 0 0 0 0 0 0 0 0 0 0 0 0 0 0 0 0 0 0 0 0 0 0 0 0 0 0 0 0 0 0
0 0 0 0 0 0 0 0 0 0 0 0 0 0 0 0 0 0 0 0 0 0 0 0 0 0 0 0 0 0 0 0 0 0 0 0 0 0 0 0 0 0 0
0 0 0 0 0 0 0 0 0 0 0 0 0 0 0 0 0 0 0 0 0 0 0 0 0 0 0 0 0 0 0 0 0 0 0 0 0 0 0 0 0 0 0
0 0 0 0 0 0 0 0 0 0 0 0 0 0 0 0 0 0 0 0 0 0 0 0 0 0 0 0 0 0 0 0 0 0 0 0 0 0 0 0 0 0 0
0 0 0 0 0 0 0 0 0 0 0 0 0 0 0 0 0 0 0 0 0 0 0 0 0 0 0 0 0 0 0 0 0 0 0 0 0 0 0 0 0 0 0
Wind_Speed_500mb
31 30 31 30 30 40 42 42 40 40 35 32 31 28 26 26 25 28 27 25 29 31 27 22 20 20 21 23 24 26 31 36 43 52 53 56 60 63 61 59 60 61 64
30 28 28 32 38 40 42 41 39 39 34 34 32 27 23 22 19 16 14 12 12 14 15 15 15 17 19 21 24 28 33 39 46 54 58 60 62 63 66 69 68 70 68
31 30 33 35 36 39 38 37 36 32 29 28 25 22 19 14 10 8 9 9 8 9 11 12 13 16 19 23 26 30 34 39 45 52 59 60 63 67 74 76 78 77 77
35 38 39 40 40 38 35 32 31 30 30 28 25 21 16 13 12 10 9 9 10 11 13 16 17 19 20 23 28 31 34 38 42 49 57 65 69 72 75 81 86 80 83
39 41 42 41 39 37 36 36 34 34 33 30 25 23 21 17 13 11 10 9 10 12 13 13 15 18 21 24 26 30 38 44 52 57 60 64 68 72 73 75 80 85 84
46 44 44 43 41 41 41 40 40 39 36 32 31 26 20 16 13 11 11 10 9 8 10 13 15 17 20 25 30 34 41 46 49 53 57 62 64 63 67 72 74 80 84
49 49 48 47 46 46 45 45 43 42 40 37 33 27 22 18 15 14 12 10 8 8 8 11 13 18 23 29 35 37 40 43 45 48 53 56 57 57 64 73 73 73 78
56 56 55 54 52 51 51 50 48 45 41 37 34 30 25 20 18 16 14 13 10 7 6 7 14 20 27 31 35 36 36 39 43 46 51 54 53 53 58 64 72 75 77
65 66 65 63 61 58 57 54 52 49 45 41 36 31 25 21 19 16 14 12 9 7 6 12 18 23 27 31 38 45 48 50 49 52 54 52 46 43 51 59 65 68 79
73 73 70 66 62 61 59 57 53 49 46 42 38 33 28 23 21 19 17 14 10 7 10 15 18 23 29 37 43 47 50 53 58 60 59 57 53 47 42 42 51 59 62
74 73 70 66 64 60 59 58 57 54 49 44 39 33 28 24 22 20 17 14 11 10 11 12 19 27 33 38 42 46 50 55 56 59 59 60 59 58 58 53 48 47 52
74 71 70 69 69 68 65 63 59 54 50 46 41 36 31 26 22 22 19 15 12 12 11 15 21 28 33 37 40 44 48 51 54 56 57 57 60 61 61 57 52 45 39
74 74 74 73 72 73 72 68 63 57 53 48 42 36 29 27 27 26 21 17 14 11 11 16 22 27 31 34 38 41 45 49 53 54 56 57 57 59 58 57 51 47 42
71 74 76 77 77 76 70 66 63 61 57 50 42 34 33 31 34 28 23 18 15 11 12 15 20 24 29 32 34 38 43 48 51 54 55 55 56 58 58 59 60 57 55
68 74 78 79 79 77 73 69 64 56 49 43 31 31 31 39 36 30 25 20 16 12 12 13 18 23 24 25 30 35 41 43 44 47 49 52 53 55 54 54 52 53 50
68 76 80 79 79 76 73 70 61 53 48 41 35 34 38 42 40 35 30 24 18 16 13 14 15 18 23 28 30 35 39 42 43 44 46 49 50 52 53 50 49 48 50
64 72 77 79 80 80 79 74 70 62 54 47 42 41 50 49 47 41 34 27 23 21 17 16 18 22 24 27 32 36 38 42 43 45 46 46 47 47 50 50 51 51 50
60 68 74 77 80 81 78 72 68 64 58 47 42 53 59 58 53 45 39 32 26 23 21 19 20 23 25 28 32 35 39 40 40 41 42 44 45 46 47 48 48 52 52
62 68 74 78 78 77 76 75 74 65 56 44 52 61 65 63 58 51 45 37 30 26 24 24 24 25 26 29 34 36 37 41 42 43 43 43 45 47 45 44 45 45 47
60 67 73 76 76 78 79 79 73 65 59 54 61 58 60 71 66 57 47 40 34 31 28 27 27 28 29 32 36 36 38 43 48 49 45 44 45 47 46 43 41 41 42
61 70 74 75 77 80 84 87 71 67 64 68 74 71 71 68 62 56 50 44 39 36 34 31 31 32 33 36 38 38 39 44 49 51 48 45 43 39 38 36 35 35 37
65 69 75 79 81 83 89 89 78 77 67 68 71 71 73 74 71 66 60 52 46 44 40 37 37 35 38 40 42 41 44 47 49 53 47 42 37 33 34 33 31 32 34
65 73 77 81 85 88 91 93 90 83 76 71 69 70 75 77 73 71 65 58 55 50 45 43 41 39 40 43 45 47 50 49 51 53 46 40 35 33 33 33 34 34 34
63 71 77 81 84 86 89 92 89 82 75 68 64 73 78 77 74 68 64 61 61 54 49 48 46 43 42 45 48 50 54 52 52 50 48 43 39 39 39 38 38 39 40
57 67 76 81 84 86 89 90 83 74 73 71 76 77 78 75 74 71 67 67 65 59 52 51 50 48 47 48 50 51 55 55 54 52 51 50 47 44 46 46 44 45 47
59 64 72 79 84 85 87 83 83 79 82 81 77 73 76 75 70 66 67 68 65 60 55 52 51 53 52 53 55 55 56 56 55 54 54 55 54 51 52 53 52 53 53
Wind_Direction_500mb
227 222 221 216 211 205 215 217 221 233 238 225 230 235 240 248 251 257 263 270 271 278 282 285 291 300 305 309 309 309 307 306 305 312 319 324 323 323 322 319 317 317 317
224 219 208 206 204 204 206 212 226 231 221 221 226 231 231 232 242 250 252 255 266 272 281 291 302 308 310 312 315 318 318 316 315 317 322 324 325 327 327 329 330 330 329
217 212 207 204 204 208 214 220 227 225 218 216 218 214 208 203 211 228 247 252 262 276 288 296 303 311 315 318 320 322 322 322 321 322 324 329 332 334 333 334 333 334 333
217 212 209 208 209 214 217 215 215 212 206 196 189 187 189 191 195 205 227 252 270 284 296 305 309 312 320 322 323 325 325 325 326 329 332 337 338 337 334 333 330 331 329
219 214 210 211 211 213 212 210 204 198 193 191 191 185 187 193 204 228 248 273 287 291 290 298 316 324 327 330 333 335 337 338 339 338 335 332 333 331 332 330 327 329 331
220 216 214 212 212 212 209 205 202 199 194 191 187 191 198 205 216 233 251 257 265 279 307 320 325 331 335 337 339 343 342 339 335 330 329 329 328 329 330 332 333 329 326
223 220 218 215 214 212 209 207 203 198 193 193 195 199 207 214 219 229 235 237 245 275 305 316 324 330 335 338 339 337 332 330 329 328 325 326 325 328 327 329 327 324 323
227 224 221 219 217 214 211 206 201 197 198 202 205 207 209 214 217 220 227 237 245 261 273 296 322 333 332 330 330 329 332 338 338 338 334 328 323 323 316 317 320 319 322
229 227 224 221 219 216 211 205 202 202 204 208 209 210 210 207 213 222 230 233 235 225 280 317 325 324 327 326 338 342 345 345 344 338 335 332 324 311 316 315 321 324 324
230 228 224 221 219 216 211 207 206 207 213 212 211 208 208 209 213 220 220 217 213 254 292 308 318 329 338 341 342 340 340 341 342 341 339 337 332 327 318 316 320 321 321
231 227 223 220 217 213 211 209 209 211 211 212 210 210 210 213 219 220 217 217 238 266 282 317 334 340 341 339 340 339 340 340 340 340 337 333 331 331 332 331 326 315 315
232 227 222 217 212 210 210 211 212 214 214 211 209 209 213 220 224 218 213 228 245 262 306 329 336 337 340 342 343 343 340 339 337 335 334 334 334 334 336 334 331 322 311
228 224 220 216 213 211 210 211 212 212 213 212 210 212 217 227 224 215 215 230 244 272 307 323 334 342 345 346 345 344 341 338 338 338 339 339 338 337 335 330 330 325 317
229 223 218 216 213 213 212 214 215 214 211 210 210 217 224 227 220 214 218 229 247 274 305 327 339 344 347 348 346 345 343 343 343 343 340 338 338 336 338 336 334 333 330
225 222 220 218 216 214 214 215 215 215 216 213 225 233 234 232 221 221 229 238 255 275 299 320 338 344 342 342 345 346 346 346 343 342 340 340 340 338 339 339 338 336 336
222 219 219 218 217 216 216 212 209 208 209 214 224 226 230 222 225 227 232 237 253 270 286 306 322 326 332 338 342 345 345 343 343 344 343 341 339 338 339 342 341 341 340
228 226 222 220 219 218 215 213 209 204 209 219 222 231 229 228 228 230 234 241 253 265 273 289 307 318 324 330 338 341 341 341 342 341 338 336 336 336 336 340 339 339 340
233 230 229 226 223 221 218 216 211 211 218 229 230 234 233 231 231 232 237 242 251 261 273 288 301 307 314 325 330 332 334 334 332 330 329 329 329 329 330 332 335 336 336
236 232 229 229 228 225 221 215 212 219 226 226 231 235 232 232 230 233 237 242 247 254 266 276 286 296 304 316 318 323 327 325 323 323 323 322 321 320 324 328 330 332 334
239 236 235 233 230 227 223 218 220 228 227 229 234 238 241 238 231 234 239 240 245 252 260 267 279 287 296 304 309 316 318 319 317 316 317 314 312 315 319 325 327 332 336
242 238 237 234 233 230 227 221 228 232 230 231 235 238 242 240 238 237 237 240 245 252 257 262 270 278 287 295 301 307 311 311 309 308 310 308 309 310 313 319 323 328 333
246 244 241 238 235 232 229 225 232 236 242 238 239 240 238 239 237 237 239 241 243 247 252 258 266 273 282 291 296 302 304 306 305 303 306 304 304 304 306 310 315 321 327
250 246 243 242 241 237 233 233 235 242 237 238 240 238 239 243 241 242 242 242 245 249 252 257 263 270 278 285 291 296 300 303 301 300 300 298 295 294 296 300 306 312 318
254 248 246 245 245 245 241 240 240 246 236 233 240 247 245 243 245 245 245 247 250 251 254 260 265 270 276 283 288 294 297 298 297 296 294 291 288 287 289 292 297 302 307
259 254 250 247 247 247 248 246 250 248 238 235 243 247 247 245 244 243 245 249 252 254 257 262 268 273 278 281 285 290 291 294 295 292 288 285 285 284 285 288 292 296 301
266 259 254 250 249 246 245 247 250 246 237 247 245 244 248 248 248 248 247 250 253 255 258 263 269 275 279 283 286 287 289 291 290 287 282 281 281 282 283 286 290 293 296
Wind_Speed_850mb
31 30 31 30 30 40 42 42 40 40 35 32 31 28 26 26 25 28 27 25 29 31 27 22 20 20 21 23 24 26 31 36 43 52 53 56 60 63 61 59 60 61 64
30 28 28 32 38 40 42 41 39 39 34 34 32 27 23 22 19 16 14 12 12 14 15 15 15 17 19 21 24 28 33 39 46 54 58 60 62 63 66 69 68 70 68
31 30 33 35 36 39 38 37 36 32 29 28 25 22 19 14 10 8 9 9 8 9 11 12 13 16 19 23 26 30 34 39 45 52 59 60 63 67 74 76 78 77 77
35 38 39 40 40 38 35 32 31 30 30 28 25 21 16 13 12 10 9 9 10 11 13 16 17 19 20 23 28 31 34 38 42 49 57 65 69 72 75 81 86 80 83
39 41 42 41 39 37 36 36 34 34 33 30 25 23 21 17 13 11 10 9 10 12 13 13 15 18 21 24 26 30 38 44 52 57 60 64 68 72 73 75 80 85 84
46 44 44 43 41 41 41 40 40 39 36 32 31 26 20 16 13 11 11 10 9 8 10 13 15 17 20 25 30 34 41 46 49 53 57 62 64 63 67 72 74 80 84
49 49 48 47 46 46 45 45 43 42 40 37 33 27 22 18 15 14 12 10 8 8 8 11 13 18 23 29 35 37 40 43 45 48 53 56 57 57 64 73 73 73 78
56 56 55 54 52 51 51 50 48 45 41 37 34 30 25 20 18 16 14 13 10 7 6 7 14 20 27 31 35 36 36 39 43 46 51 54 53 53 58 64 72 75 77
65 66 65 63 61 58 57 54 52 49 45 41 36 31 25 21 19 16 14 12 9 7 6 12 18 23 27 31 38 45 48 50 49 52 54 52 46 43 51 59 65 68 79
73 73 70 66 62 61 59 57 53 49 46 42 38 33 28 23 21 19 17 14 10 7 10 15 18 23 29 37 43 47 50 53 58 60 59 57 53 47 42 42 51 59 62
74 73 70 66 64 60 59 58 57 54 49 44 39 33 28 24 22 20 17 14 11 10 11 12 19 27 33 38 42 46 50 55 56 59 59 60 59 58 58 53 48 47 52
74 71 70 69 69 68 65 63 59 54 50 46 41 36 31 26 22 22 19 15 12 12 11 15 21 28 33 37 40 44 48 51 54 56 57 57 60 61 61 57 52 45 39
74 74 74 73 72 73 72 68 63 57 53 48 42 36 29 27 27 26 21 17 14 11 11 16 22 27 31 34 38 41 45 49 53 54 56 57 57 59 58 57 51 47 42
71 74 76 77 77 76 70 66 63 61 57 50 42 34 33 31 34 28 23 18 15 11 12 15 20 24 29 32 34 38 43 48 51 54 55 55 56 58 58 59 60 57 55
68 74 78 79 79 77 73 69 64 56 49 43 31 31 31 39 36 30 25 20 16 12 12 13 18 23 24 25 30 35 41 43 44 47 49 52 53 55 54 54 52 53 50
68 76 80 79 79 76 73 70 61 53 48 41 35 34 38 42 40 35 30 24 18 16 13 14 15 18 23 28 30 35 39 42 43 44 46 49 50 52 53 50 49 48 50
64 72 77 79 80 80 79 74 70 62 54 47 42 41 50 49 47 41 34 27 23 21 17 16 18 22 24 27 32 36 38 42 43 45 46 46 47 47 50 50 51 51 50
60 68 74 77 80 81 78 72 68 64 58 47 42 53 59 58 53 45 39 32 26 23 21 19 20 23 25 28 32 35 39 40 40 41 42 44 45 46 47 48 48 52 52
62 68 74 78 78 77 76 75 74 65 56 44 52 61 65 63 58 51 45 37 30 26 24 24 24 25 26 29 34 36 37 41 42 43 43 43 45 47 45 44 45 45 47
60 67 73 76 76 78 79 79 73 65 59 54 61 58 60 71 66 57 47 40 34 31 28 27 27 28 29 32 36 36 38 43 48 49 45 44 45 47 46 43 41 41 42
61 70 74 75 77 80 84 87 71 67 64 68 74 71 71 68 62 56 50 44 39 36 34 31 31 32 33 36 38 38 39 44 49 51 48 45 43 39 38 36 35 35 37
65 69 75 79 81 83 89 89 78 77 67 68 71 71 73 74 71 66 60 52 46 44 40 37 37 35 38 40 42 41 44 47 49 53 47 42 37 33 34 33 31 32 34
65 73 77 81 85 88 91 93 90 83 76 71 69 70 75 77 73 71 65 58 55 50 45 43 41 39 40 43 45 47 50 49 51 53 46 40 35 33 33 33 34 34 34
63 71 77 81 84 86 89 92 89 82 75 68 64 73 78 77 74 68 64 61 61 54 49 48 46 43 42 45 48 50 54 52 52 50 48 43 39 39 39 38 38 39 40
57 67 76 81 84 86 89 90 83 74 73 71 76 77 78 75 74 71 67 67 65 59 52 51 50 48 47 48 50 51 55 55 54 52 51 50 47 44 46 46 44 45 47
59 64 72 79 84 85 87 83 83 79 82 81 77 73 76 75 70 66 67 68 65 60 55 52 51 53 52 53 55 55 56 56 55 54 54 55 54 51 52 53 52 53 53
Wind_Direction_850mb
227 222 221 216 211 205 215 217 221 233 238 225 230 235 240 248 251 257 263 270 271 278 282 285 291 300 305 309 309 309 307 306 305 312 319 324 323 323 322 319 317 317 317
224 219 208 206 204 204 206 212 226 231 221 221 226 231 231 232 242 250 252 255 266 272 281 291 302 308 310 312 315 318 318 316 315 317 322 324 325 327 327 329 330 330 329
217 212 207 204 204 208 214 220 227 225 218 216 218 214 208 203 211 228 247 252 262 276 288 296 303 311 315 318 320 322 322 322 321 322 324 329 332 334 333 334 333 334 333
217 212 209 208 209 214 217 215 215 212 206 196 189 187 189 191 195 205 227 252 270 284 296 305 309 312 320 322 323 325 325 325 326 329 332 337 338 337 334 333 330 331 329
219 214 210 211 211 213 212 210 204 198 193 191 191 185 187 193 204 228 248 273 287 291 290 298 316 324 327 330 333 335 337 338 339 338 335 332 333 331 332 330 327 329 331
220 216 214 212 212 212 209 205 202 199 194 191 187 191 198 205 216 233 251 257 265 279 307 320 325 331 335 337 339 343 342 339 335 330 329 329 328 329 330 332 333 329 326
223 220 218 215 214 212 209 207 203 198 193 193 195 199 207 214 219 229 235 237 245 275 305 316 324 330 335 338 339 337 332 330 329 328 325 326 325 328 327 329 327 324 323
227 224 221 219 217 214 211 206 201 197 198 202 205 207 209 214 217 220 227 237 245 261 273 296 322 333 332 330 330 329 332 338 338 338 334 328 323 323 316 317 320 319 322
229 227 224 221 219 216 211 205 202 202 204 208 209 210 210 207 213 222 230 233 235 225 280 317 325 324 327 326 338 342 345 345 344 338 335 332 324 311 316 315 321 324 324
230 228 224 221 219 216 211 207 206 207 213 212 211 208 208 209 213 220 220 217 213 254 292 308 318 329 338 341 342 340 340 341 342 341 339 337 332 327 318 316 320 321 321
231 227 223 220 217 213 211 209 209 211 211 212 210 210 210 213 219 220 217 217 238 266 282 317 334 340 341 339 340 339 340 340 340 340 337 333 331 331 332 331 326 315 315
232 227 222 217 212 210 210 211 212 214 214 211 209 209 213 220 224 218 213 228 245 262 306 329 336 337 340 342 343 343 340 339 337 335 334 334 334 334 336 334 331 322 311
228 224 220 216 213 211 210 211 212 212 213 212 210 212 217 227 224 215 215 230 244 272 307 323 334 342 345 346 345 344 341 338 338 338 339 339 338 337 335 330 330 325 317
229 223 218 216 213 213 212 214 215 214 211 210 210 217 224 227 220 214 218 229 247 274 305 327 339 344 347 348 346 345 343 343 343 343 340 338 338 336 338 336 334 333 330
225 222 220 218 216 214 214 215 215 215 216 213 225 233 234 232 221 221 229 238 255 275 299 320 338 344 342 342 345 346 346 346 343 342 340 340 340 338 339 339 338 336 336
222 219 219 218 217 216 216 212 209 208 209 214 224 226 230 222 225 227 232 237 253 270 286 306 322 326 332 338 342 345 345 343 343 344 343 341 339 338 339 342 341 341 340
228 226 222 220 219 218 215 213 209 204 209 219 222 231 229 228 228 230 234 241 253 265 273 289 307 318 324 330 338 341 341 341 342 341 338 336 336 336 336 340 339 339 340
233 230 229 226 223 221 218 216 211 211 218 229 230 234 233 231 231 232 237 242 251 261 273 288 301 307 314 325 330 332 334 334 332 330 329 329 329 329 330 332 335 336 336
236 232 229 229 228 225 221 215 212 219 226 226 231 235 232 232 230 233 237 242 247 254 266 276 286 296 304 316 318 323 327 325 323 323 323 322 321 320 324 328 330 332 334
239 236 235 233 230 227 223 218 220 228 227 229 234 238 241 238 231 234 239 240 245 252 260 267 279 287 296 304 309 316 318 319 317 316 317 314 312 315 319 325 327 332 336
242 238 237 234 233 230 227 221 228 232 230 231 235 238 242 240 238 237 237 240 245 252 257 262 270 278 287 295 301 307 311 311 309 308 310 308 309 310 313 319 323 328 333
246 244 241 238 235 232 229 225 232 236 242 238 239 240 238 239 237 237 239 241 243 247 252 258 266 273 282 291 296 302 304 306 305 303 306 304 304 304 306 310 315 321 327
250 246 243 242 241 237 233 233 235 242 237 238 240 238 239 243 241 242 242 242 245 249 252 257 263 270 278 285 291 296 300 303 301 300 300 298 295 294 296 300 306 312 318
254 248 246 245 245 245 241 240 240 246 236 233 240 247 245 243 245 245 245 247 250 251 254 260 265 270 276 283 288 294 297 298 297 296 294 291 288 287 289 292 297 302 307
259 254 250 247 247 247 248 246 250 248 238 235 243 247 247 245 244 243 245 249 252 254 257 262 268 273 278 281 285 290 291 294 295 292 288 285 285 284 285 288 292 296 301
266 259 254 250 249 246 245 247 250 246 237 247 245 244 248 248 248 248 247 250 253 255 258 263 269 275 279 283 286 287 289 291 290 287 282 281 281 282 283 286 290 293 296